Location: Oshawa
(43.9000°N, 78.8670°W)
Time: 07:58:43
(UTC-04:00)

Cosmos 1805 Rocket - Visible Passes

Search period start: 28 March 2017 00:00
Search period end: 07 April 2017 00:00
Orbit: 606 x 630 km, 82.5° (Epoch: 26 March)

Date Brightness Start Highest point End Pass type
(mag) Time Alt. Az. Time Alt. Az. Time Alt. Az.
28 Mar 5.2 21:18:30 10° NNE 21:20:54 19° NE 21:20:54 19° NE visible
28 Mar 5.5 22:55:39 10° NNW 22:58:04 27° NW 22:58:04 27° NW visible
29 Mar 4.6 21:35:00 10° N 21:38:17 32° NE 21:38:17 32° NE visible
29 Mar 6.0 23:13:17 10° NW 23:15:27 20° WNW 23:15:27 20° WNW visible
30 Mar 3.8 21:51:51 10° N 21:55:42 57° NE 21:55:42 57° NE visible
30 Mar 6.5 23:31:40 10° WNW 23:32:52 12° WNW 23:32:52 12° WNW visible
31 Mar 5.5 20:33:15 10° NE 20:34:59 12° ENE 20:36:00 11° E visible
31 Mar 3.7 22:08:55 10° NNW 22:13:10 70° WNW 22:13:10 70° WNW visible
01 Apr 5.0 20:49:00 10° NNE 20:52:22 21° ENE 20:53:30 19° E visible
01 Apr 4.7 22:26:14 10° NNW 22:30:21 38° W 22:30:40 37° WSW visible
02 Apr 4.2 21:05:32 10° N 21:09:39 35° ENE 21:11:02 28° ESE visible
02 Apr 5.7 22:43:52 10° NW 22:47:16 22° W 22:48:13 20° WSW visible
03 Apr 3.5 21:22:23 10° N 21:26:50 65° E 21:28:37 34° SSE visible
03 Apr 6.4 23:02:20 10° WNW 23:04:04 12° W 23:05:48 10° WSW visible
04 Apr 3.8 21:39:29 10° NNW 21:43:56 69° W 21:46:16 27° S visible
05 Apr 5.0 20:19:32 10° NNE 20:22:57 21° ENE 20:26:21 10° ESE visible
05 Apr 4.9 21:56:49 10° NNW 22:00:55 37° W 22:03:58 16° SSW visible
06 Apr 4.2 20:36:05 10° N 20:40:14 36° ENE 20:44:21 10° SE visible
06 Apr 5.9 22:14:28 10° NW 22:17:49 21° W 22:21:10 10° SW visible
